FW7339 Weather Reports


time (UTC)temp
F
wind
direction
speed
knots
gust
knots
rain 1hr
in
rain 24hr
in
rain mn
in
humidity
%
barometer
mb
20260906234559 94 119 3.5 5.2 0.00 0.00 0.00 48 1012.1
20260906234059 95 169 1.7 5.2 0.00 0.00 0.00 48 1012.4
20260906233558 95 145 1.7 3.5 0.00 0.00 0.00 47 1012.4
20260906233100 95 165 0.9 7.0 0.00 0.00 0.00 48 1012.4
20260906232058 94 137 3.5 7.8 0.00 0.00 0.00 49 1012.2
20260906231559 94 152 2.6 7.8 0.00 0.00 0.00 49 1012.1
20260906231059 93 130 5.2 7.0 0.00 0.00 0.00 49 1012.4
20260906225601 93 120 4.3 7.8 0.00 0.00 0.00 52 1012.5
20260906225059 93 131 3.5 8.7 0.00 0.00 0.00 52 1012.5
20260906224100 94 163 3.5 8.7 0.00 0.00 0.00 53 1012.7
20260906223600 94 182 1.7 6.1 0.00 0.00 0.00 53 1012.8
20260906223100 92 177 3.5 7.0 0.00 0.00 0.00 54 1012.9
20260906222600 92 158 1.7 7.0 0.00 0.00 0.00 56 1013.1
20260906222100 92 186 3.5 6.1 0.00 0.00 0.00 56 1012.9
20260906221600 92 153 3.5 7.0 0.00 0.00 0.00 55 1012.9
20260906220559 92 172 0.0 7.0 0.00 0.00 0.00 55 1013.1
20260906220100 92 164 2.6 7.0 0.00 0.00 0.00 54 1013.1
20260906215600 92 158 1.7 3.5 0.00 0.00 0.00 54 1013.1
20260906215100 92 182 0.0 3.5 0.00 0.00 0.00 53 1013.1
20260906214059 92 178 0.0 7.0 0.00 0.00 0.00 53 1012.9
20260906213559 92 179 0.9 7.0 0.00 0.00 0.00 55 1013.2
20260906213058 92 166 4.3 7.8 0.00 0.00 0.00 54 1013.2
20260906212559 92 157 3.5 7.8 0.00 0.00 0.00 54 1013.3
20260906212059 92 178 1.7 7.0 0.00 0.00 0.00 54 1013.4
20260906211601 92 139 2.6 8.7 0.00 0.00 0.00 53 1013.5
20260906211100 93 111 1.7 8.7 0.00 0.00 0.00 52 1013.2
20260906210601 93 169 2.6 7.8 0.00 0.00 0.00 53 1013.5
20260906210100 94 183 0.0 6.1 0.00 0.00 0.00 54 1013.5
20260906205600 93 190 0.9 8.7 0.00 0.00 0.00 56 1013.5
20260906205058 94 174 0.9 8.7 0.00 0.00 0.00 54 1013.6
20260906204559 94 218 3.5 7.8 0.00 0.00 0.00 55 1013.6
20260906204059 94 198 1.7 5.2 0.00 0.00 0.00 53 1013.7
20260906203558 94 187 2.6 5.2 0.00 0.00 0.00 53 1013.4
20260906203058 94 240 1.7 5.2 0.00 0.00 0.00 54 1013.9
20260906202558 94 168 1.7 7.8 0.00 0.00 0.00 54 1013.7
20260906202059 95 188 1.7 9.6 0.00 0.00 0.00 53 1013.8
20260906201559 94 150 0.9 9.6 0.00 0.00 0.00 55 1014.0
20260906201101 95 216 3.5 7.0 0.00 0.00 0.00 52 1013.7
20260906200559 94 182 1.7 8.7 0.00 0.00 0.00 55 1013.9
20260906195600 94 191 1.7 7.8 0.00 0.00 0.00 54 1014.0
20260906195100 95 197 2.6 7.0 0.00 0.00 0.00 51 1014.2
20260906194100 93 200 0.9 3.5 0.00 0.00 0.00 51 1014.4
20260906193601 93 197 0.9 7.0 0.00 0.00 0.00 50 1014.6
20260906193100 91 192 3.5 7.0 0.00 0.00 0.00 53 1014.4
20260906192059 91 207 2.6 3.5 0.00 0.00 0.00 52 1014.6
20260906191058 91 211 1.7 2.6 0.00 0.00 0.00 56 1014.6
20260906190558 91 191 1.7 2.6 0.00 0.00 0.00 57 1014.5
20260906190100 91 169 0.9 1.7 0.00 0.00 0.00 60 1015.0
20260906185600 89 165 0.9 2.6 0.00 0.00 0.00 62 1014.6
20260906184559 87 103 1.7 3.5 0.00 0.00 0.00 65 1015.3
20260906184100 87 141 0.9 3.5 0.00 0.00 0.00 66 1015.3
20260906183558 87 124 1.7 5.2 0.00 0.00 0.00 67 1015.5
20260906183059 86 55 4.3 5.2 0.00 0.00 0.00 65 1015.3
20260906182559 86 64 3.5 3.5 0.00 0.00 0.00 67 1015.5
20260906182058 86 89 3.5 6.1 0.00 0.00 0.00 69 1015.7
20260906181600 86 66 3.5 6.1 0.00 0.00 0.00 68 1015.7
20260906181100 86 79 2.6 6.1 0.00 0.00 0.00 66 1015.7
20260906180559 86 116 2.6 6.1 0.00 0.00 0.00 68 1015.8
20260906180100 86 53 2.6 3.5 0.00 0.00 0.00 67 1015.8
20260906175601 86 192 0.9 5.2 0.00 0.00 0.00 68 1015.9
20260906175059 85 32 2.6 5.2 0.00 0.00 0.00 69 1016.2
20260906174558 85 56 3.5 7.0 0.00 0.00 0.00 70 1016.0
20260906174058 85 54 5.2 7.8 0.00 0.00 0.00 70 1016.3
20260906173559 85 38 6.1 7.8 0.00 0.00 0.00 70 1016.2
20260906173100 85 57 3.5 7.8 0.00 0.00 0.00 71 1016.1
20260906172600 85 54 3.5 7.0 0.00 0.00 0.00 70 1016.5
20260906172100 86 127 3.5 6.1 0.00 0.00 0.00 70 1016.5
20260906171600 86 76 2.6 5.2 0.00 0.00 0.00 69 1016.5
20260906165536 87 131 0.9 2.6 0.00 0.00 0.00 66 1016.8
20260906165035 87 118 1.7 2.6 0.00 0.00 0.00 65 1016.8
20260906164535 87 158 0.9 1.7 0.00 0.00 0.00 65 1016.8
20260906164022 87 162 0.9 2.6 0.00 0.00 0.00 67 1016.7
20260906163523 85 166 0.0 2.6 0.00 0.00 0.00 69 1016.9
20260906163023 85 183 0.9 3.5 0.00 0.00 0.00 72 1016.8
20260906162523 84 199 2.6 3.5 0.00 0.00 0.00 71 1016.9
20260906162023 83 242 3.5 7.0 0.00 0.00 0.00 73 1016.8
20260906160511 84 195 1.7 2.6 0.00 0.00 0.00 75 1016.8
20260906160010 84 192 0.9 5.2 0.00 0.00 0.00 74 1016.5
20260906155512 83 131 1.7 5.2 0.00 0.00 0.00 73 1016.6
20260906154510 82 57 2.6 5.2 0.00 0.00 0.00 76 1016.5
20260906154012 83 112 1.7 5.2 0.00 0.00 0.00 76 1016.6
20260906153510 83 169 1.7 2.6 0.00 0.00 0.00 76 1016.6
20260906153011 82 102 0.9 2.6 0.00 0.00 0.00 75 1016.4
20260906152012 82 182 0.9 2.6 0.00 0.00 0.00 78 1016.5
20260906151510 81 144 2.6 2.6 0.00 0.00 0.00 79 1016.4
20260906151012 81 63 0.9 2.6 0.00 0.00 0.00 79 1016.4
20260906150012 81 78 1.7 2.6 0.00 0.00 0.00 83 1016.2
20260906145513 81 189 1.7 1.7 0.00 0.00 0.00 84 1016.4
20260906145012 81 188 0.0 0.9 0.00 0.00 0.00 84 1016.3
20260906144512 81 188 0.0 0.9 0.00 0.00 0.00 84 1016.2
20260906144012 81 188 0.0 0.9 0.00 0.00 0.00 84 1016.0
20260906143512 80 187 0.0 1.7 0.00 0.00 0.00 86 1016.3
20260906143012 80 187 0.9 1.7 0.00 0.00 0.00 86 1016.2
20260906142512 80 195 0.9 1.7 0.00 0.00 0.00 85 1016.0
20260906142012 79 196 0.0 1.7 0.00 0.00 0.00 84 1016.2
20260906141512 80 196 0.9 1.7 0.00 0.00 0.00 84 1016.0
20260906140959 80 193 0.9 1.7 0.00 0.00 0.00 82 1015.9
20260906140458 80 192 0.0 0.9 0.00 0.00 0.00 83 1015.8
20260906135958 80 182 0.9 0.9 0.00 0.00 0.00 82 1015.7
20260906135459 80 185 0.0 0.9 0.00 0.00 0.00 82 1015.7
20260906134958 80 191 0.0 0.0 0.00 0.00 0.00 83 1015.7
20260906134459 80 191 0.0 0.9 0.00 0.00 0.00 84 1015.7
20260906133959 80 191 0.0 0.9 0.00 0.00 0.00 84 1015.4
20260906133459 80 191 0.0 0.9 0.00 0.00 0.00 84 1015.4
20260906133000 80 191 0.0 0.0 0.00 0.00 0.00 84 1015.4
20260906132500 79 191 0.0 0.0 0.00 0.00 0.00 85 1015.3
20260906131959 78 191 0.0 0.9 0.00 0.00 0.00 87 1015.1
20260906131500 78 191 0.0 0.9 0.00 0.00 0.00 87 1015.0
20260906130959 78 191 0.0 0.9 0.00 0.00 0.00 87 1015.1
20260906125959 78 191 0.9 0.9 0.00 0.00 0.00 87 1015.0
20260906125459 77 191 0.0 0.9 0.00 0.00 0.00 86 1015.2
20260906124947 77 192 0.0 0.9 0.00 0.00 0.00 86 1015.1
20260906124446 77 192 0.0 0.9 0.00 0.00 0.00 86 1014.6
20260906123948 77 193 0.0 0.9 0.00 0.00 0.00 86 1014.9
20260906123446 77 193 0.0 0.9 0.00 0.00 0.00 86 1014.9
20260906122447 77 193 0.0 0.9 0.00 0.00 0.00 85 1014.5
20260906121948 76 193 0.0 0.9 0.00 0.00 0.00 84 1014.4
20260906121448 76 193 0.0 1.7 0.00 0.00 0.00 83 1014.3
20260906120446 77 193 0.9 1.7 0.00 0.00 0.00 83 1014.4
20260906115946 77 193 0.0 1.7 0.00 0.00 0.00 83 1014.3
20260906115446 77 193 0.9 1.7 0.00 0.00 0.00 83 1014.1
20260906113946 77 191 0.0 0.9 0.00 0.00 0.00 83 1014.1
20260906113448 77 192 0.0 1.7 0.00 0.00 0.00 83 1013.9
20260906112946 77 192 0.0 2.6 0.00 0.00 0.00 83 1013.9
20260906112447 77 202 1.7 2.6 0.00 0.00 0.00 84 1013.8
20260906111946 77 195 0.9 1.7 0.00 0.00 0.00 84 1013.6
20260906111447 78 201 0.9 1.7 0.00 0.00 0.00 83 1013.6
20260906110947 78 189 0.0 1.7 0.00 0.00 0.00 81 1013.6
20260906110447 77 186 0.9 1.7 0.00 0.00 0.00 81 1013.6
20260906105947 78 190 0.0 0.9 0.00 0.00 0.00 81 1013.9
20260906105446 78 166 0.0 1.7 0.00 0.00 0.00 81 1013.7
20260906104447 79 166 0.9 0.9 0.00 0.00 0.00 82 1013.4
20260906103947 79 166 0.9 0.9 0.00 0.00 0.00 81 1013.4
20260906103447 79 165 0.0 1.7 0.00 0.00 0.00 78 1013.5
20260906102946 79 165 0.9 1.7 0.00 0.00 0.00 78 1013.6
20260906102446 79 171 1.7 1.7 0.00 0.00 0.00 78 1013.7
20260906101947 79 177 0.0 0.9 0.00 0.00 0.00 78 1013.7
20260906101447 79 177 0.0 1.7 0.00 0.00 0.00 78 1013.6
20260906100946 79 167 0.9 1.7 0.00 0.00 0.00 77 1013.5
20260906100447 79 166 0.9 1.7 0.00 0.00 0.00 78 1013.5
20260906095447 79 182 0.9 1.7 0.00 0.00 0.00 79 1013.3
20260906094446 80 190 0.9 0.9 0.00 0.00 0.00 77 1013.6
20260906093947 80 186 0.0 0.9 0.00 0.00 0.00 77 1013.4
20260906093435 80 186 0.0 0.9 0.00 0.00 0.00 77 1013.7
20260906092434 80 182 0.0 0.0 0.00 0.00 0.00 77 1013.5
20260906091935 80 182 0.0 0.9 0.00 0.00 0.00 77 1013.4
20260906091435 80 182 0.0 0.9 0.00 0.00 0.00 77 1013.7
20260906090934 80 182 0.0 0.9 0.00 0.00 0.00 77 1013.6
20260906090433 80 182 0.0 0.0 0.00 0.00 0.00 76 1013.6
20260906085922 80 182 0.0 0.9 0.00 0.00 0.00 76 1013.4
20260906085422 80 181 0.0 1.7 0.00 0.00 0.00 76 1013.3
20260906084921 81 181 0.9 2.6 0.00 0.00 0.00 75 1013.5
20260906084422 81 169 1.7 2.6 0.00 0.00 0.00 76 1013.4
20260906083921 80 159 1.7 1.7 0.00 0.00 0.00 76 1013.5
20260906082922 80 182 0.0 0.9 0.00 0.00 0.00 76 1013.4
20260906082409 80 180 0.9 0.9 0.00 0.00 0.00 76 1013.3
20260906081909 81 183 0.0 0.9 0.00 0.00 0.00 76 1013.6
20260906080910 81 179 0.0 2.6 0.00 0.00 0.00 76 1013.5
20260906080410 81 180 0.0 1.7 0.00 0.00 0.00 76 1013.6
20260906075910 81 178 0.0 1.7 0.00 0.00 0.00 76 1013.7
20260906075409 81 178 0.9 1.7 0.00 0.00 0.00 76 1013.8
20260906074910 81 177 0.9 1.7 0.00 0.00 0.00 76 1013.9
20260906074409 82 177 0.9 1.7 0.00 0.00 0.00 76 1013.7
20260906073910 82 173 0.9 1.7 0.00 0.00 0.00 75 1013.8
20260906073410 82 177 0.9 1.7 0.00 0.00 0.00 75 1013.8
20260906071909 82 172 0.9 1.7 0.00 0.00 0.00 75 1014.1
20260906071409 82 173 0.9 1.7 0.00 0.00 0.00 75 1013.9
20260906070910 82 179 0.9 1.7 0.00 0.00 0.00 75 1014.2
20260906070410 82 183 0.0 3.5 0.00 0.00 0.00 74 1014.0
20260906065910 83 184 1.7 3.5 0.00 0.00 0.00 74 1014.0
20260906065410 83 179 0.9 2.6 0.00 0.00 0.00 73 1014.5
20260906064911 83 175 1.7 2.6 0.00 0.00 0.00 73 1014.4
20260906063909 83 165 1.7 2.6 0.00 0.00 0.00 73 1014.2
20260906063410 83 187 0.0 2.6 0.00 0.00 0.00 72 1014.3
20260906062910 83 184 0.0 2.6 0.00 0.00 0.00 71 1014.4
20260906061910 84 181 1.7 2.6 0.00 0.00 0.00 70 1014.3
20260906060909 84 174 0.9 2.6 0.00 0.00 0.00 70 1014.4
20260906060409 84 179 0.0 3.5 0.00 0.00 0.00 69 1014.5
20260906055909 84 186 1.7 3.5 0.00 0.00 0.00 70 1014.5
20260906055409 85 164 0.9 3.5 0.00 0.00 0.00 69 1014.4
20260906054411 84 181 0.9 2.6 0.00 0.00 0.00 70 1014.4
20260906053909 85 176 0.9 5.2 0.00 0.00 0.00 70 1014.6
20260906053409 85 170 1.7 5.2 0.00 0.00 0.00 69 1014.4
20260906052910 85 166 1.7 2.6 0.00 0.00 0.00 69 1014.4
20260906052410 85 178 1.7 2.6 0.00 0.00 0.00 69 1014.3
20260906051409 85 182 0.0 5.2 0.00 0.00 0.00 68 1014.2
20260906050910 86 166 1.7 5.2 0.00 0.00 0.00 67 1014.4
20260906050410 86 185 1.7 2.6 0.00 0.00 0.00 67 1014.4
20260906045409 87 177 1.7 6.1 0.00 0.00 0.00 66 1014.4
20260906044410 87 147 1.7 7.0 0.00 0.00 0.00 65 1014.3
20260906043910 87 155 2.6 6.1 0.00 0.00 0.00 65 1014.0
20260906042910 87 164 1.7 7.8 0.00 0.00 0.00 65 1014.4
20260906042410 87 132 1.7 6.1 0.00 0.00 0.00 65 1014.4
20260906041909 87 128 2.6 5.2 0.00 0.00 0.00 64 1014.2
20260906040909 87 176 1.7 6.1 0.00 0.00 0.00 63 1014.3
20260906040410 87 169 1.7 3.5 0.00 0.00 0.00 62 1014.4
20260906035909 87 173 0.9 5.2 0.00 0.00 0.00 62 1014.3
20260906034409 85 166 1.7 2.6 0.00 0.00 0.00 61 1014.1
20260906033909 85 178 1.7 1.7 0.00 0.00 0.00 61 1014.0
20260906033410 84 174 1.7 1.7 0.00 0.00 0.00 61 1014.1
20260906032910 84 178 0.9 0.9 0.00 0.00 0.00 62 1014.1
20260906032409 85 178 0.0 0.9 0.00 0.00 0.00 60 1014.1
20260906031910 85 178 0.0 0.0 0.00 0.00 0.00 61 1013.9
20260906031410 85 178 0.0 0.0 0.00 0.00 0.00 59 1013.8
20260906030911 85 178 0.0 0.0 0.00 0.00 0.00 59 1013.4
20260906030410 85 178 0.0 0.9 0.00 0.00 0.00 58 1013.6
20260906025910 86 179 0.0 1.7 0.00 0.00 0.00 58 1013.5
20260906025410 86 179 0.9 3.5 0.00 0.00 0.00 57 1013.4
20260906024410 86 156 0.9 1.7 0.00 0.00 0.00 56 1013.1
20260906023911 87 160 0.9 1.7 0.00 0.00 0.00 56 1012.8
20260906022910 87 161 0.9 2.6 0.00 0.00 0.00 55 1012.8
20260906022411 87 164 1.7 2.6 0.00 0.00 0.00 56 1012.4
20260906021910 87 162 0.9 1.7 0.00 0.00 0.00 57 1012.3
20260906021409 87 183 0.9 0.9 0.00 0.00 0.00 55 1012.5
20260906020910 87 177 0.0 0.0 0.00 0.00 0.00 54 1012.2
20260906015409 88 176 0.0 0.0 0.00 0.00 0.00 53 1012.1
20260906014908 88 176 0.0 0.0 0.00 0.00 0.00 53 1012.0
20260906014409 88 177 0.0 0.0 0.00 0.00 0.00 53 1011.8
20260906013909 89 177 0.0 0.0 0.00 0.00 0.00 52 1012.1
20260906013409 89 177 0.0 0.9 0.00 0.00 0.00 51 1012.1
20260906012909 90 176 0.0 1.7 0.00 0.00 0.00 51 1011.9
20260906012410 90 176 0.9 1.7 0.00 0.00 0.00 49 1011.6
20260906010909 91 176 0.0 0.9 0.00 0.00 0.00 47 1011.9
20260906010409 92 176 0.9 1.7 0.00 0.00 0.00 47 1012.0
20260906005908 92 171 0.9 1.7 0.00 0.00 0.00 46 1011.8
20260906005408 93 169 0.0 2.6 0.00 0.00 0.00 45 1011.8
20260906004907 94 172 0.0 2.6 0.00 0.00 0.00 44 1011.9
20260906004407 94 177 0.0 5.2 0.00 0.00 0.00 44 1011.7
20260906003408 95 118 1.7 6.1 0.00 0.00 0.00 42 1011.8
20260906002907 95 153 1.7 6.1 0.00 0.00 0.00 42 1011.7
20260906002408 96 161 2.6 6.1 0.00 0.00 0.00 42 1011.5
20260906001909 96 173 1.7 7.8 0.00 0.00 0.00 41 1011.6
20260906001408 96 178 1.7 7.8 0.00 0.00 0.00 41 1011.6
20260906000907 96 174 2.6 6.1 0.00 0.00 0.00 41 1011.7
20260906000410 97 188 1.7 6.1 0.00 0.00 0.00 41 1011.6
20260905235907 97 171 3.5 6.1 0.00 0.00 0.00 41 1011.5
20260905235408 97 136 1.7 6.1 0.00 0.00 0.00 42 1011.7